| time (UTC) | temp F | wind direction | speed MPH | gust MPH | rain 1hr in | rain 24hr in | rain mn in | humidity % | barometer mb |
| 20260906061107 | 62 | 0 | 1.0 | 2.0 | 0.00 | 0.00 | 0.00 | 74 | 1023.0 |
| 20260906060057 | 62 | 0 | 1.0 | 2.0 | 0.00 | 0.00 | 0.00 | 76 | 1022.9 |
| 20260906055047 | 61 | 0.0 | 0.0 | 0.00 | 0.00 | 0.00 | 79 | 1022.8 | |
| 20260906054103 | 59 | 0.0 | 0.0 | 0.00 | 0.00 | 0.00 | 80 | 1022.8 | |
| 20260906053033 | 58 | 0.0 | 0.0 | 0.00 | 0.00 | 0.00 | 78 | 1022.7 | |
| 20260906052024 | 58 | 0.0 | 0.0 | 0.00 | 0.00 | 0.00 | 78 | 1022.7 | |
| 20260906051020 | 59 | 0.0 | 0.0 | 0.00 | 0.00 | 0.00 | 77 | 1022.8 | |
| 20260906050110 | 59 | 0 | 0.0 | 2.0 | 0.00 | 0.00 | 0.00 | 77 | 1022.8 |
| 20260906045106 | 59 | 0.0 | 0.0 | 0.00 | 0.00 | 0.00 | 77 | 1022.7 | |
| 20260906044056 | 59 | 0.0 | 0.0 | 0.00 | 0.00 | 0.00 | 77 | 1022.5 | |
| 20260906043046 | 59 | 0.0 | 1.0 | 0.00 | 0.00 | 0.00 | 76 | 1022.4 | |
| 20260906042042 | 59 | 0 | 0.0 | 2.0 | 0.00 | 0.00 | 0.00 | 77 | 1022.5 |
| 20260906041052 | 59 | 0 | 1.0 | 2.0 | 0.00 | 0.00 | 0.00 | 77 | 1022.3 |
| 20260906040022 | 59 | 0 | 0.0 | 2.0 | 0.00 | 0.00 | 0.00 | 77 | 1022.3 |
| 20260906035018 | 60 | 0 | 0.0 | 2.0 | 0.00 | 0.00 | 0.00 | 77 | 1022.1 |
| 20260906034108 | 60 | 0.0 | 0.0 | 0.00 | 0.00 | 0.00 | 77 | 1022.2 | |
| 20260906033058 | 60 | 0.0 | 0.0 | 0.00 | 0.00 | 0.00 | 76 | 1022.1 | |
| 20260906032054 | 60 | 0.0 | 0.0 | 0.00 | 0.00 | 0.00 | 76 | 1022.1 | |
| 20260906031044 | 60 | 0 | 1.0 | 2.0 | 0.00 | 0.00 | 0.00 | 76 | 1021.9 |
| 20260906030055 | 60 | 0 | 1.0 | 2.0 | 0.00 | 0.00 | 0.00 | 75 | 1021.9 |
| 20260906025030 | 61 | 0.0 | 0.0 | 0.00 | 0.00 | 0.00 | 74 | 1022.0 | |
| 20260906024020 | 61 | 0.0 | 0.0 | 0.00 | 0.00 | 0.00 | 74 | 1022.0 | |
| 20260906023111 | 61 | 0.0 | 0.0 | 0.00 | 0.00 | 0.00 | 74 | 1022.0 | |
| 20260906022107 | 61 | 0.0 | 0.0 | 0.00 | 0.00 | 0.00 | 73 | 1022.0 | |
| 20260906021056 | 62 | 0 | 0.0 | 1.0 | 0.00 | 0.00 | 0.00 | 73 | 1022.0 |
| 20260906020047 | 62 | 0.0 | 0.0 | 0.00 | 0.00 | 0.00 | 73 | 1021.9 | |
| 20260906015042 | 62 | 0.0 | 0.0 | 0.00 | 0.00 | 0.00 | 73 | 1022.0 | |
| 20260906014113 | 62 | 0.0 | 0.0 | 0.00 | 0.00 | 0.00 | 73 | 1022.1 | |
| 20260906013023 | 62 | 0.0 | 1.0 | 0.00 | 0.00 | 0.00 | 74 | 1022.1 | |
| 20260906012038 | 62 | 0 | 0.0 | 2.0 | 0.00 | 0.00 | 0.00 | 74 | 1022.1 |
| 20260906011109 | 62 | 0.0 | 0.0 | 0.00 | 0.00 | 0.00 | 73 | 1022.1 | |
| 20260906010059 | 62 | 0 | 0.0 | 2.0 | 0.00 | 0.00 | 0.00 | 73 | 1022.0 |
| 20260906005055 | 63 | 0 | 1.0 | 2.0 | 0.00 | 0.00 | 0.00 | 72 | 1022.0 |
| 20260906004045 | 63 | 0.0 | 0.0 | 0.00 | 0.00 | 0.00 | 72 | 1021.8 | |
| 20260906003035 | 63 | 0.0 | 0.0 | 0.00 | 0.00 | 0.00 | 71 | 1021.9 | |
| 20260906002031 | 64 | 0 | 0.0 | 2.0 | 0.00 | 0.00 | 0.00 | 69 | 1022.0 |
| 20260906001042 | 64 | 0 | 0.0 | 2.0 | 0.00 | 0.00 | 0.00 | 69 | 1022.0 |
| 20260906000111 | 64 | 0 | 0.0 | 2.0 | 0.00 | 0.00 | 0.00 | 68 | 1022.1 |
| 20260905235108 | 64 | 0 | 1.0 | 2.0 | 0.00 | 0.00 | 0.00 | 67 | 1022.2 |
| 20260905234057 | 65 | 0.0 | 0.0 | 0.00 | 0.00 | 0.00 | 66 | 1022.2 | |
| 20260905233047 | 65 | 0 | 0.0 | 2.0 | 0.00 | 0.00 | 0.00 | 66 | 1022.1 |
| 20260905232043 | 65 | 0 | 1.0 | 2.0 | 0.00 | 0.00 | 0.00 | 66 | 1022.1 |
| 20260905231033 | 65 | 0 | 0.0 | 2.0 | 0.00 | 0.00 | 0.00 | 66 | 1022.1 |
| 20260905230024 | 65 | 0.0 | 0.0 | 0.00 | 0.00 | 0.00 | 65 | 1022.1 | |
| 20260905225020 | 65 | 0.0 | 0.0 | 0.00 | 0.00 | 0.00 | 65 | 1022.2 | |
| 20260905224110 | 65 | 0 | 1.0 | 2.0 | 0.00 | 0.00 | 0.00 | 64 | 1022.1 |
| 20260905223106 | 66 | 0 | 0.0 | 2.0 | 0.00 | 0.00 | 0.00 | 64 | 1022.2 |
| 20260905222056 | 66 | 0 | 1.0 | 2.0 | 0.00 | 0.00 | 0.00 | 63 | 1022.2 |
| 20260905221046 | 67 | 0.0 | 1.0 | 0.00 | 0.00 | 0.00 | 62 | 1022.1 | |
| 20260905220042 | 68 | 0.0 | 0.0 | 0.00 | 0.00 | 0.00 | 61 | 1022.0 | |
| 20260905215052 | 68 | 0.0 | 0.0 | 0.00 | 0.00 | 0.00 | 61 | 1022.0 | |
| 20260905214023 | 68 | 0.0 | 0.0 | 0.00 | 0.00 | 0.00 | 61 | 1022.1 | |
| 20260905213038 | 68 | 0 | 0.0 | 2.0 | 0.00 | 0.00 | 0.00 | 61 | 1022.0 |
| 20260905212108 | 68 | 0 | 0.0 | 1.0 | 0.00 | 0.00 | 0.00 | 61 | 1022.0 |
| 20260905211058 | 68 | 0 | 1.0 | 3.0 | 0.00 | 0.00 | 0.00 | 61 | 1022.0 |
| 20260905210114 | 69 | 0.0 | 0.0 | 0.00 | 0.00 | 0.00 | 60 | 1021.9 | |
| 20260905205044 | 70 | 0 | 1.0 | 2.0 | 0.00 | 0.00 | 0.00 | 59 | 1021.8 |
| 20260905204034 | 69 | 0 | 0.0 | 2.0 | 0.00 | 0.00 | 0.00 | 59 | 1021.7 |
| 20260905203030 | 70 | 0 | 1.0 | 3.0 | 0.00 | 0.00 | 0.00 | 57 | 1021.8 |
| 20260905202020 | 71 | 0 | 1.0 | 2.0 | 0.00 | 0.00 | 0.00 | 55 | 1021.7 |
| 20260905201131 | 72 | 0 | 1.0 | 3.0 | 0.00 | 0.00 | 0.00 | 54 | 1021.6 |
| 20260905200107 | 71 | 0.0 | 0.0 | 0.00 | 0.00 | 0.00 | 53 | 1021.6 | |
| 20260905195056 | 71 | 0 | 1.0 | 2.0 | 0.00 | 0.00 | 0.00 | 53 | 1021.7 |
| 20260905194047 | 73 | 0 | 2.0 | 3.0 | 0.00 | 0.00 | 0.00 | 47 | 1021.6 |
| 20260905193042 | 75 | 0 | 1.0 | 2.0 | 0.00 | 0.00 | 0.00 | 45 | 1021.5 |
| 20260905192033 | 75 | 0 | 1.0 | 2.0 | 0.00 | 0.00 | 0.00 | 45 | 1021.4 |
| 20260905191023 | 75 | 0 | 1.0 | 2.0 | 0.00 | 0.00 | 0.00 | 44 | 1021.2 |
| 20260905190019 | 75 | 0.0 | 0.0 | 0.00 | 0.00 | 0.00 | 43 | 1021.0 | |
| 20260905185109 | 76 | 0 | 1.0 | 2.0 | 0.00 | 0.00 | 0.00 | 43 | 1020.9 |
| 20260905184219 | 77 | 0 | 1.0 | 3.0 | 0.00 | 0.00 | 0.00 | 42 | 1020.8 |
| 20260905183115 | 78 | 0 | 0.0 | 2.0 | 0.00 | 0.00 | 0.00 | 41 | 1020.7 |
| 20260905182045 | 79 | 0 | 1.0 | 2.0 | 0.00 | 0.00 | 0.00 | 41 | 1020.7 |
| 20260905181035 | 81 | 0 | 1.0 | 2.0 | 0.00 | 0.00 | 0.00 | 40 | 1020.7 |
| 20260905180031 | 81 | 0 | 2.0 | 3.0 | 0.00 | 0.00 | 0.00 | 38 | 1020.6 |
| 20260905175041 | 81 | 0 | 2.0 | 6.0 | 0.00 | 0.00 | 0.00 | 34 | 1020.5 |
| 20260905174132 | 82 | 355 | 2.0 | 4.0 | 0.00 | 0.00 | 0.00 | 32 | 1020.4 |
| 20260905173107 | 83 | 0.0 | 1.0 | 0.00 | 0.00 | 0.00 | 31 | 1020.3 | |
| 20260905172117 | 84 | 351 | 1.0 | 4.0 | 0.00 | 0.00 | 0.00 | 30 | 1020.2 |
| 20260905171047 | 85 | 335 | 1.0 | 4.0 | 0.00 | 0.00 | 0.00 | 29 | 1020.1 |
| 20260905170043 | 85 | 315 | 1.0 | 4.0 | 0.00 | 0.00 | 0.00 | 28 | 1020.2 |
| 20260905165114 | 85 | 315 | 4.0 | 6.0 | 0.00 | 0.00 | 0.00 | 28 | 1020.1 |
| 20260905164044 | 86 | 331 | 5.0 | 8.0 | 0.00 | 0.00 | 0.00 | 26 | 1020.1 |
| 20260905163020 | 87 | 315 | 3.0 | 5.0 | 0.00 | 0.00 | 0.00 | 25 | 1020.2 |
| 20260905162110 | 88 | 322 | 2.0 | 4.0 | 0.00 | 0.00 | 0.00 | 25 | 1020.2 |
| 20260905161106 | 88 | 320 | 3.0 | 8.0 | 0.00 | 0.00 | 0.00 | 24 | 1020.2 |
| 20260905160055 | 88 | 320 | 4.0 | 10.0 | 0.00 | 0.00 | 0.00 | 23 | 1020.1 |
| 20260905155045 | 88 | 334 | 5.0 | 10.0 | 0.00 | 0.00 | 0.00 | 22 | 1020.1 |
| 20260905154035 | 89 | 341 | 5.0 | 8.0 | 0.00 | 0.00 | 0.00 | 21 | 1020.1 |
| 20260905153031 | 89 | 0 | 3.0 | 4.0 | 0.00 | 0.00 | 0.00 | 21 | 1019.8 |
| 20260905145652 | 89 | 355 | 8.0 | 13.0 | 0.00 | 0.00 | 0.00 | 20 | 1020.0 |
| 20260905144608 | 90 | 330 | 6.0 | 16.0 | 0.00 | 0.00 | 0.00 | 20 | 1020.0 |
| 20260905143624 | 89 | 315 | 5.0 | 11.0 | 0.00 | 0.00 | 0.00 | 20 | 1020.0 |
| 20260905142559 | 89 | 327 | 11.0 | 18.0 | 0.00 | 0.00 | 0.00 | 20 | 1020.1 |
| 20260905141555 | 90 | 332 | 9.0 | 15.0 | 0.00 | 0.00 | 0.00 | 20 | 1020.2 |
| 20260905140631 | 90 | 320 | 7.0 | 18.0 | 0.00 | 0.00 | 0.00 | 20 | 1020.1 |
| 20260905135546 | 91 | 325 | 6.0 | 12.0 | 0.00 | 0.00 | 0.00 | 12 | 1020.0 |
| 20260905134541 | 91 | 321 | 7.0 | 11.0 | 0.00 | 0.00 | 0.00 | 11 | 1020.2 |
| 20260905133537 | 91 | 344 | 8.0 | 13.0 | 0.00 | 0.00 | 0.00 | 12 | 1020.3 |
| 20260905132533 | 91 | 352 | 8.0 | 14.0 | 0.00 | 0.00 | 0.00 | 12 | 1020.3 |
| 20260905131529 | 91 | 322 | 6.0 | 15.0 | 0.00 | 0.00 | 0.00 | 11 | 1020.2 |
| 20260905130524 | 91 | 325 | 8.0 | 13.0 | 0.00 | 0.00 | 0.00 | 12 | 1020.2 |
| 20260905125520 | 91 | 318 | 9.0 | 14.0 | 0.00 | 0.00 | 0.00 | 12 | 1020.3 |
| 20260905124536 | 91 | 1 | 5.0 | 8.0 | 0.00 | 0.00 | 0.00 | 12 | 1020.5 |
| 20260905123611 | 91 | 331 | 6.0 | 11.0 | 0.00 | 0.00 | 0.00 | 13 | 1020.5 |
| 20260905122608 | 91 | 337 | 6.0 | 10.0 | 0.00 | 0.00 | 0.00 | 13 | 1020.5 |
| 20260905121603 | 91 | 336 | 6.0 | 9.0 | 0.00 | 0.00 | 0.00 | 13 | 1020.6 |
| 20260905120559 | 90 | 336 | 8.0 | 12.0 | 0.00 | 0.00 | 0.00 | 18 | 1020.6 |
| 20260905115555 | 90 | 321 | 8.0 | 14.0 | 0.00 | 0.00 | 0.00 | 16 | 1020.6 |
| 20260905114551 | 91 | 322 | 6.0 | 11.0 | 0.00 | 0.00 | 0.00 | 11 | 1020.7 |
| 20260905113546 | 90 | 349 | 7.0 | 14.0 | 0.00 | 0.00 | 0.00 | 19 | 1020.8 |
| 20260905112543 | 90 | 1 | 5.0 | 12.0 | 0.00 | 0.00 | 0.00 | 21 | 1020.8 |
| 20260905111538 | 90 | 330 | 5.0 | 14.0 | 0.00 | 0.00 | 0.00 | 20 | 1020.8 |
| 20260905110534 | 90 | 0 | 5.0 | 7.0 | 0.00 | 0.00 | 0.00 | 20 | 1020.7 |
| 20260905105529 | 89 | 341 | 5.0 | 10.0 | 0.00 | 0.00 | 0.00 | 20 | 1020.8 |
| 20260905104525 | 89 | 350 | 5.0 | 12.0 | 0.00 | 0.00 | 0.00 | 20 | 1020.7 |
| 20260905103521 | 88 | 302 | 4.0 | 7.0 | 0.00 | 0.00 | 0.00 | 25 | 1020.9 |
| 20260905102516 | 88 | 339 | 7.0 | 15.0 | 0.00 | 0.00 | 0.00 | 22 | 1020.6 |
| 20260905101612 | 87 | 0 | 2.0 | 4.0 | 0.00 | 0.00 | 0.00 | 25 | 1021.1 |
| 20260905100628 | 86 | 0 | 4.0 | 8.0 | 0.00 | 0.00 | 0.00 | 26 | 1021.1 |
| 20260905095603 | 86 | 90 | 2.0 | 3.0 | 0.00 | 0.00 | 0.00 | 28 | 1021.2 |
| 20260905094559 | 85 | 61 | 4.0 | 6.0 | 0.00 | 0.00 | 0.00 | 29 | 1021.2 |
| 20260905093635 | 85 | 90 | 3.0 | 5.0 | 0.00 | 0.00 | 0.00 | 31 | 1021.3 |
| 20260905092550 | 84 | 90 | 3.0 | 5.0 | 0.00 | 0.00 | 0.00 | 31 | 1021.3 |
| 20260905091546 | 83 | 52 | 2.0 | 4.0 | 0.00 | 0.00 | 0.00 | 35 | 1021.5 |
| 20260905090642 | 82 | 75 | 3.0 | 4.0 | 0.00 | 0.00 | 0.00 | 37 | 1021.5 |
| 20260905085538 | 81 | 45 | 3.0 | 4.0 | 0.00 | 0.00 | 0.00 | 42 | 1021.5 |
| 20260905084533 | 80 | 45 | 2.0 | 4.0 | 0.00 | 0.00 | 0.00 | 44 | 1021.5 |
| 20260905083529 | 79 | 45 | 2.0 | 4.0 | 0.00 | 0.00 | 0.00 | 45 | 1021.4 |
| 20260905082526 | 78 | 45 | 2.0 | 4.0 | 0.00 | 0.00 | 0.00 | 49 | 1021.5 |
| 20260905081521 | 77 | 45 | 1.0 | 2.0 | 0.00 | 0.00 | 0.00 | 50 | 1021.6 |
| 20260905080517 | 75 | 45 | 2.0 | 3.0 | 0.00 | 0.00 | 0.00 | 51 | 1021.6 |
| 20260905075612 | 74 | 45 | 2.0 | 4.0 | 0.00 | 0.00 | 0.00 | 53 | 1021.6 |
| 20260905074628 | 73 | 45 | 1.0 | 4.0 | 0.00 | 0.00 | 0.00 | 57 | 1021.5 |
| 20260905073624 | 72 | 45 | 2.0 | 3.0 | 0.00 | 0.00 | 0.00 | 61 | 1021.6 |
| 20260905072600 | 71 | 45 | 1.0 | 3.0 | 0.00 | 0.00 | 0.00 | 62 | 1021.7 |
| 20260905071556 | 70 | 45 | 1.0 | 2.0 | 0.00 | 0.00 | 0.00 | 63 | 1021.8 |
| 20260905070611 | 68 | 45 | 1.0 | 3.0 | 0.00 | 0.00 | 0.00 | 64 | 1021.8 |
| 20260905065547 | 67 | 45 | 1.0 | 2.0 | 0.00 | 0.00 | 0.00 | 67 | 1021.8 |
| 20260905064542 | 65 | 45 | 1.0 | 2.0 | 0.00 | 0.00 | 0.00 | 70 | 1022.1 |
| 20260905063538 | 64 | 45 | 1.0 | 2.0 | 0.00 | 0.00 | 0.00 | 70 | 1022.2 |
| 20260905062534 | 63 | 45 | 1.0 | 2.0 | 0.00 | 0.00 | 0.00 | 73 | 1022.0 |
| 20260905061529 | 62 | 45 | 2.0 | 3.0 | 0.00 | 0.00 | 0.00 | 74 | 1022.0 |